Location: Buckeye Ditch
(40.9104°N, 122.9517°W)
Time: 13:02:44
(UTC+00:00)

Tiros 1 despin weight - Pass Details

Date: 21 May 2025
Orbit: 563 x 601 km, 48.2° (Epoch: 22 June)

Event Time Altitude Azimuth Distance (km) Brightness Sun altitude
Rises 14:55:18 0° 299° (WNW) 2,842 ? 21.8°
Reaches altitude 10° 14:57:38 10° 303° (WNW) 1,941 ? 22.2°
Maximum altitude 15:02:01 57° 23° (NNE) 710 ? 23.1°
Drops below altitude 10° 15:06:25 10° 102° (ESE) 1,938 ? 23.9°
Sets 15:08:44 0° 107° (ESE) 2,836 ? 24.3°
